When you browse on this site, cookies collect data to enhance your experience and personalize the content and advertising you see.
Visit our Privacy Policy to learn more. By continuing to use the site, you agree to this use of cookies and data.
  • In Lithuania
  • List of Countries
  • For 7 days
  • Water Temperature
  • Satellite Maps
  • Weather Map
  • Weather Widgets
  • user-avatar
    Login

    Hourly Weather Bregenz

    Today, 24 March, Sunday

    Time Temperature Precipitation Wind Pressure Humidity
    00:00 +3°C° 0 mm 1 mps 650 mmHg 81%
    01:00 +2°C° 0 mm 2 mps 650 mmHg 75%
    02:00 +2°C° 0 mm 2 mps 650 mmHg 75%
    03:00 +1°C° 0 mm 2 mps 650 mmHg 75%
    04:00 +2°C° 0 mm 1 mps 649 mmHg 76%
    05:00 +2°C° 0 mm 1 mps 649 mmHg 75%
    06:00 +1°C° 0 mm 2 mps 649 mmHg 73%
    07:00 +1°C° 0 mm 2 mps 649 mmHg 72%
    08:00 +4°C° 0 mm 1 mps 650 mmHg 67%
    09:00 +7°C° 0 mm 1 mps 650 mmHg 62%
    10:00 +10°C° 0 mm 1 mps 650 mmHg 56%
    11:00 +11°C° 0 mm 1 mps 650 mmHg 55%
    12:00 +11°C° 0 mm 1 mps 650 mmHg 55%
    13:00 +12°C° 0 mm 1 mps 650 mmHg 54%
    14:00 +12°C° 0 mm 2 mps 650 mmHg 56%
    15:00 +12°C° 0 mm 2 mps 650 mmHg 58%
    16:00 +12°C° 0 mm 2 mps 650 mmHg 59%
    17:00 +10°C° 0 mm 1 mps 649 mmHg 67%
    18:00 +8°C° 0 mm 1 mps 648 mmHg 75%
    19:00 +6°C° 0 mm 1 mps 648 mmHg 83%
    20:00 +5°C° 0.1 mm 1 mps 648 mmHg 85%
    21:00 +5°C° 0.1 mm 1 mps 648 mmHg 87%
    22:00 +5°C° 0.1 mm 1 mps 649 mmHg 89%
    23:00 +5°C° 0.1 mm 1 mps 648 mmHg 91%

    Tomorrow, 25 March, Monday

    Time Temperature Precipitation Wind Pressure Humidity
    00:00 +4°C° 0.1 mm 1 mps 648 mmHg 94%
    01:00 +4°C° 0.1 mm 1 mps 648 mmHg 96%
    02:00 +4°C° 0.2 mm 1 mps 648 mmHg 96%
    03:00 +4°C° 0.2 mm 1 mps 647 mmHg 96%
    04:00 +4°C° 0.2 mm 1 mps 647 mmHg 96%
    05:00 +3°C° 0.4 mm 1 mps 647 mmHg 96%
    06:00 +3°C° 0.4 mm 1 mps 647 mmHg 96%
    07:00 +2°C° 0.4 mm 2 mps 647 mmHg 96%
    08:00 +2°C° 0.3 mm 2 mps 647 mmHg 94%
    09:00 +2°C° 0.3 mm 2 mps 647 mmHg 93%
    10:00 +2°C° 0.3 mm 2 mps 646 mmHg 92%
    11:00 +2°C° 0.4 mm 2 mps 646 mmHg 89%
    12:00 +2°C° 0.4 mm 2 mps 646 mmHg 86%
    13:00 +2°C° 0.4 mm 2 mps 646 mmHg 84%
    14:00 0°C° 0.5 mm 3 mps 646 mmHg 83%
    15:00 0°C° 0.5 mm 3 mps 646 mmHg 82%
    16:00 -1°C° 0.5 mm 4 mps 645 mmHg 82%
    17:00 -1°C° 0.9 mm 3 mps 646 mmHg 83%
    18:00 -4°C° 0.9 mm 3 mps 646 mmHg 85%
    19:00 -4°C° 0.9 mm 2 mps 646 mmHg 86%
    20:00 -4°C° 0.4 mm 2 mps 647 mmHg 87%
    21:00 -5°C° 0.4 mm 2 mps 647 mmHg 88%
    22:00 -3°C° 0.4 mm 1 mps 648 mmHg 89%
    23:00 -4°C° 0.2 mm 1 mps 648 mmHg 90%

    Day after tomorrow, 26 March, Tuesday

    Time Temperature Precipitation Wind Pressure Humidity
    00:00 -4°C° 0.2 mm 1 mps 648 mmHg 92%
    01:00 -4°C° 0.2 mm 1 mps 648 mmHg 93%
    02:00 -4°C° 0.2 mm 1 mps 648 mmHg 93%
    03:00 -4°C° 0.2 mm 1 mps 649 mmHg 94%
    04:00 -4°C° 0.2 mm 1 mps 649 mmHg 95%
    05:00 -4°C° 0.1 mm 1 mps 649 mmHg 94%
    06:00 -4°C° 0.1 mm 1 mps 650 mmHg 93%
    07:00 -6°C° 0.1 mm 2 mps 650 mmHg 92%
    08:00 -5°C° 0 mm 2 mps 650 mmHg 88%
    09:00 -4°C° 0 mm 2 mps 651 mmHg 84%
    10:00 -3°C° 0 mm 2 mps 651 mmHg 80%
    11:00 -2°C° 0 mm 2 mps 651 mmHg 77%
    12:00 -2°C° 0 mm 2 mps 651 mmHg 75%
    13:00 -1°C° 0 mm 2 mps 651 mmHg 72%
    14:00 +1°C° 0 mm 2 mps 651 mmHg 71%
    15:00 0°C° 0 mm 3 mps 651 mmHg 71%
    16:00 0°C° 0 mm 3 mps 651 mmHg 70%
    17:00 -1°C° 0 mm 2 mps 651 mmHg 74%
    18:00 -2°C° 0 mm 2 mps 651 mmHg 79%
    19:00 -1°C° 0 mm 1 mps 651 mmHg 83%
    20:00 -2°C° 0 mm 1 mps 651 mmHg 85%
    21:00 -3°C° 0 mm 1 mps 651 mmHg 87%
    22:00 -4°C° 0 mm 1 mps 651 mmHg 89%
    23:00 -4°C° 0 mm 1 mps 651 mmHg 89%

    27 March, Wednesday

    Time Temperature Precipitation Wind Pressure Humidity
    00:00 -6°C° 0 mm 1 mps 650 mmHg 88%
    01:00 -6°C° 0 mm 1 mps 650 mmHg 88%
    02:00 -6°C° 0 mm 1 mps 650 mmHg 88%
    03:00 -7°C° 0 mm 1 mps 650 mmHg 87%
    04:00 -7°C° 0 mm 1 mps 650 mmHg 86%
    05:00 -6°C° 0 mm 1 mps 650 mmHg 85%
    06:00 -6°C° 0 mm 0 mps 650 mmHg 84%
    07:00 -6°C° 0 mm 0 mps 650 mmHg 83%
    08:00 -3°C° 0 mm 1 mps 651 mmHg 79%
    09:00 -1°C° 0 mm 1 mps 651 mmHg 75%
    10:00 +1°C° 0 mm 1 mps 652 mmHg 71%
    11:00 +1°C° 0 mm 2 mps 652 mmHg 70%
    12:00 +2°C° 0 mm 2 mps 652 mmHg 68%
    13:00 +3°C° 0 mm 2 mps 652 mmHg 66%
    14:00 +2°C° 0 mm 3 mps 652 mmHg 68%
    15:00 +1°C° 0 mm 3 mps 652 mmHg 69%
    16:00 +1°C° 0 mm 3 mps 652 mmHg 71%
    17:00 0°C° 0 mm 3 mps 652 mmHg 76%
    18:00 -1°C° 0 mm 2 mps 652 mmHg 81%
    19:00 -2°C° 0 mm 2 mps 652 mmHg 86%
    20:00 -3°C° 0 mm 2 mps 652 mmHg 88%
    21:00 -2°C° 0 mm 1 mps 652 mmHg 90%
    22:00 -3°C° 0 mm 1 mps 652 mmHg 92%
    23:00 -3°C° 0 mm 1 mps 652 mmHg 91%

    28 March, Thursday

    Time Temperature Precipitation Wind Pressure Humidity
    00:00 -4°C° 0 mm 1 mps 652 mmHg 91%
    01:00 -4°C° 0 mm 1 mps 652 mmHg 90%
    02:00 -4°C° 0 mm 1 mps 652 mmHg 89%
    03:00 -4°C° 0 mm 1 mps 652 mmHg 88%
    04:00 -4°C° 0 mm 1 mps 651 mmHg 87%
    05:00 -4°C° 0 mm 1 mps 652 mmHg 86%
    06:00 -4°C° 0 mm 1 mps 652 mmHg 84%
    07:00 -3°C° 0 mm 1 mps 652 mmHg 82%
    08:00 -1°C° 0 mm 1 mps 652 mmHg 76%
    09:00 +1°C° 0 mm 1 mps 653 mmHg 69%
    10:00 +4°C° 0 mm 1 mps 653 mmHg 63%
    11:00 +4°C° 0 mm 1 mps 653 mmHg 63%
    12:00 +4°C° 0 mm 2 mps 653 mmHg 62%
    13:00 +5°C° 0 mm 2 mps 653 mmHg 62%
    14:00 +5°C° 0 mm 2 mps 653 mmHg 65%
    15:00 +5°C° 0 mm 2 mps 653 mmHg 68%
    16:00 +4°C° 0 mm 2 mps 652 mmHg 71%
    17:00 +3°C° 0 mm 2 mps 652 mmHg 78%
    18:00 +1°C° 0 mm 2 mps 652 mmHg 84%
    19:00 +1°C° 0 mm 1 mps 652 mmHg 91%
    20:00 0°C° 0 mm 1 mps 652 mmHg 92%
    21:00 -1°C° 0 mm 1 mps 652 mmHg 92%
    22:00 -1°C° 0 mm 1 mps 652 mmHg 93%
    23:00 -2°C° 0 mm 1 mps 652 mmHg 91%

    29 March, Friday

    Time Temperature Precipitation Wind Pressure Humidity
    00:00 -2°C° 0 mm 1 mps 652 mmHg 90%
    01:00 -3°C° 0 mm 1 mps 652 mmHg 89%
    02:00 -3°C° 0 mm 1 mps 651 mmHg 87%
    03:00 -3°C° 0 mm 1 mps 651 mmHg 86%
    04:00 -3°C° 0 mm 1 mps 651 mmHg 85%
    05:00 -3°C° 0 mm 1 mps 651 mmHg 84%
    06:00 -3°C° 0 mm 1 mps 651 mmHg 83%
    07:00 -2°C° 0 mm 1 mps 651 mmHg 82%
    08:00 0°C° 0 mm 1 mps 652 mmHg 75%
    09:00 +3°C° 0 mm 1 mps 653 mmHg 69%
    10:00 +5°C° 0 mm 1 mps 653 mmHg 63%
    11:00 +6°C° 0 mm 1 mps 653 mmHg 61%
    12:00 +7°C° 0 mm 1 mps 653 mmHg 59%
    13:00 +8°C° 0 mm 1 mps 653 mmHg 58%
    14:00 +8°C° 0 mm 1 mps 652 mmHg 59%
    15:00 +8°C° 0 mm 1 mps 652 mmHg 60%
    16:00 +7°C° 0 mm 2 mps 652 mmHg 61%
    17:00 +6°C° 0 mm 1 mps 651 mmHg 70%
    18:00 +3°C° 0 mm 1 mps 651 mmHg 79%
    19:00 +1°C° 0 mm 1 mps 650 mmHg 87%
    20:00 +1°C° 0 mm 1 mps 650 mmHg 88%
    21:00 0°C° 0 mm 1 mps 650 mmHg 88%
    22:00 -2°C° 0 mm 2 mps 651 mmHg 88%
    23:00 -2°C° 0 mm 2 mps 650 mmHg 87%
    Show more